Simultaneous Nadir Overpasses (SNOs) Predictions

Prediction of SNOs near equator between AQUA and NPP Satellite Orbit:

Table of predicted SNOs near equator for the next 14.0 days since TLE Epoch: 8/3/2013
Index Date (AQUA) Time (AQUA) AQUA Lat,Lon Date (NPP) Time (NPP) NPP Lat,Lon Distance(km) Time Diff (sec)
1 08/04/2013 00:14:35 23.86,-163.36 08/04/2013 00:04:35 23.91,-163.79 43.96 600
2 08/04/2013 00:57:59 -2.26, 9.10 08/04/2013 00:49:05 -2.13, 8.65 51.86 534
3 08/04/2013 01:46:15 -2.29, 177.68 08/04/2013 01:38:36 -2.46, 176.97 81.15 459
4 08/06/2013 16:25:54 5.10, -43.29 08/06/2013 16:16:12 5.01, -43.57 31.81 582
5 08/06/2013 17:14:01 -0.58, 125.33 08/06/2013 17:05:35 -0.43, 124.79 61.79 506
6 08/06/2013 18:02:16 -4.03, -66.07 08/06/2013 17:55:05 -4.22, -66.87 90.81 431
7 08/09/2013 08:41:55 3.38, 72.95 08/09/2013 08:32:42 3.32, 72.58 41.76 553
8 08/09/2013 09:30:01 1.20,-118.42 08/09/2013 09:22:04 1.32,-119.05 71.69 477
9 08/12/2013 00:09:40 -6.23, 20.60 08/11/2013 23:59:40 -6.16, 20.41 22.57 600
10 08/12/2013 00:57:56 1.68,-170.81 08/12/2013 00:49:11 1.57,-171.27 51.97 525
11 08/12/2013 01:46:02 2.90, -2.18 08/12/2013 01:38:33 3.07, -2.90 81.71 449
12 08/14/2013 16:25:39 -4.49, 136.85 08/14/2013 16:16:08 -4.42, 136.56 32.69 571
13 08/14/2013 17:13:55 -0.05, -54.57 08/14/2013 17:05:39 -0.18, -55.11 62.22 496
14 08/14/2013 18:02:01 4.64, 114.07 08/14/2013 17:55:01 4.81, 113.26 91.73 420
15 08/17/2013 07:59:48 29.99, 79.21 08/17/2013 07:49:48 30.36, 78.68 64.83 600
16 08/17/2013 08:41:38 -2.72,-106.90 08/17/2013 08:32:36 -2.62,-107.27 43.06 542
17 08/17/2013 09:29:54 -1.82, 61.69 08/17/2013 09:22:07 -1.98, 61.06 72.54 467




NCC Satellite Simultaneous Nadir Overpasses (SNOs) Prediction Service
